Home   Weather   Oranjestad   Past weeks

Flag for Aruba Past Weather in Oranjestad, Aruba — Yesterday and Last 2 Weeks

Now
84 °F

Passing clouds.


Feels Like: 90 °F
Forecast: 77 / 87 °F
Wind: 8 mph from East

Location: Queen Beatrix Airport - Aruba

Current Time: Feb 20, 2017 at 2:20:56 pm

Latest Report: Feb 20, 2017 at 1:00 pm


Visibility: N/A

Pressure: 29.92 "Hg

Humidity: 66%

Dew Point: 72 °F

Location of OranjestadLocation

Past Weather in Oranjestad — Graph

°F

Oranjestad Temperature Yesterday

Maximum temperature yesterday: 86 °F (at 1:00 pm)
Minimum temperature yesterday: 75 °F (at 7:00 am)
Average temperature yesterday: 81 °F

High & Low Weather Summary for the Past Weeks

 TemperatureHumidityPressure
High88 °F (Feb 7, 1:00 pm)94% (Feb 12, 3:00 am)30.04 "Hg (Feb 12, 3:00 am)
Low72 °F (Feb 12, 8:00 am)39% (Feb 12, 11:00 pm)29.83 "Hg (Feb 5, 5:00 pm)
Average81 °F73%29.93 "Hg
* Reported Feb 5 1:00 pm — Feb 20 1:00 pm, Oranjestad, Weather by CustomWeather, © 2017

Note: Actual official high and low records may vary slightly from our data, if they occured in-between our weather recording intervals... More about our weather records

Advertising

Oranjestad Weather History for the Previous 24 Hours

Scroll right to see more
 ConditionsComfort  
Time TempWeatherWind HumidityBarometerVisibility
1:00 pm
Mon, Feb 20
84 °FPassing clouds.8 mph66%29.92 "HgN/A
12:00 pm84 °FScattered clouds.13 mph66%29.95 "HgN/A
11:00 am84 °FScattered clouds.13 mph66%29.98 "HgN/A
10:00 am84 °FPassing clouds.16 mph66%29.98 "HgN/A
9:00 am81 °FPassing clouds.13 mph70%29.95 "HgN/A
8:00 am79 °FPassing clouds.7 mph74%29.95 "HgN/A
7:00 am75 °FPassing clouds.7 mph83%29.95 "HgN/A
6:00 am75 °FPassing clouds.7 mph83%29.92 "HgN/A
5:00 am77 °FPassing clouds.8 mph79%29.92 "HgN/A
3:00 am77 °FPassing clouds.8 mph79%29.92 "HgN/A
1:00 am79 °FPassing clouds.13 mph74%29.95 "HgN/A
12:00 am79 °FPassing clouds.14 mph70%29.95 "HgN/A
11:00 pm
Sun, Feb 19
79 °FPassing clouds.16 mph74%29.95 "HgN/A
10:00 pm79 °FPassing clouds.16 mph74%29.95 "HgN/A
9:00 pm79 °FPassing clouds.15 mph74%29.92 "HgN/A
8:00 pm79 °FPassing clouds.15 mph74%29.92 "HgN/A
7:00 pm81 °FPassing clouds.18 mph70%29.89 "HgN/A
6:00 pm82 °FPassing clouds.18 mph70%29.89 "HgN/A
5:00 pm84 °FPassing clouds.18 mph66%29.89 "HgN/A
4:00 pm84 °FPassing clouds.20 mph66%29.89 "HgN/A
3:00 pm86 °FPassing clouds.20 mph62%29.92 "HgN/A
2:00 pm86 °FPassing clouds.22 mph59%29.95 "HgN/A
Weather by CustomWeather, © 2017

See weather overviewHow to use our weather pages